Home > Weather > Kalamata > Past weeks

Flag for Greece Weather for the Past 2 Weeks in Kalamata, Greece

Now
54 °F

Passing clouds.


Feels Like: 54 °F
Forecast: 47 / 70 °F
Wind: No wind

Location: Kalamata Airport

Current Time: May 6, 2016 at 11:46:50 PM

Latest Report: May 6, 2016 at 10:50 PM


Visibility: N/A

Pressure: 30.01 "Hg

Humidity: 88%

Dew Point: 50 °F

Location of KalamataLocation

Historic Weather in Kalamata — Graph

°F

Kalamata Temperature Yesterday

Maximum temperature yesterday: 68 °F (at 11:50 AM)
Minimum temperature yesterday: 50 °F (at 3:50 AM)
Average temperature yesterday: 59 °F

High & Low Weather Summary for the Past Weeks

 TemperatureHumidityPressure
High82 °F (Apr 29, 12:20 PM)100% (May 5, 7:20 AM)30.18 "Hg (May 5, 7:20 AM)
Low45 °F (Apr 27, 6:50 AM)20% (Apr 27, 12:50 PM)29.62 "Hg (Apr 24, 4:50 PM)
Average63 °F64%29.88 "Hg
* Reported Apr 21 9:50 PM — May 6 9:50 PM, Kalamata, Weather by CustomWeather, © 2016

Note: Actual official high and low records may vary slightly from our data, if they occured in-between our weather recording intervals... More about our weather records

Advertising

Kalamata Weather History for the Previous 24 Hours

Scroll right to see more
 ConditionsComfort  
Time TempWeatherWind HumidityBarometerVisibility
9:50 PM
Fri, May 6
55 °FPassing clouds.No wind82%30.01 "HgN/A
8:50 PM57 °FPassing clouds.No wind77%29.98 "HgN/A
8:20 PM63 °FScattered clouds.No wind59%29.98 "HgN/A
7:50 PM64 °FScattered clouds.No wind56%29.98 "HgN/A
7:20 PM64 °FScattered clouds.8 mph52%29.98 "HgN/A
6:20 PM64 °FScattered clouds.7 mph60%29.98 "HgN/A
5:50 PM64 °FLight rain. Scattered clouds.6 mph64%29.98 "HgN/A
5:20 PM70 °FScattered clouds.No wind43%29.98 "HgN/A
4:50 PM73 °FScattered clouds.6 mph57%29.68 "HgN/A
4:20 PM68 °FScattered clouds.No wind53%29.98 "HgN/A
3:50 PM68 °FScattered clouds.6 mph56%29.98 "HgN/A
3:20 PM66 °FScattered clouds.7 mph64%29.98 "HgN/A
2:50 PM64 °FScattered clouds.6 mph64%29.98 "HgN/A
2:20 PM59 °FThunderstorms. Mostly cloudy.No wind72%30.01 "HgN/A
1:50 PM61 °FThunderstorms. Mostly cloudy.10 mph63%30.01 "HgN/A
12:50 PM64 °FThunderstorms. Broken clouds.No wind64%29.98 "HgN/A
12:20 PM66 °FBroken clouds.6 mph56%29.98 "HgN/A
11:50 AM70 °FScattered clouds.6 mph57%29.98 "HgN/A
11:20 AM68 °FScattered clouds.No wind53%29.98 "HgN/A
10:50 AM68 °FScattered clouds.No wind53%29.95 "HgN/A
10:20 AM64 °FPassing clouds.No wind60%29.95 "HgN/A
9:50 AM63 °FPassing clouds.No wind64%29.95 "Hg5 mi
9:20 AM61 °FFog.No wind72%29.95 "Hg5 mi
8:50 AM59 °FFog.5 mph77%29.95 "Hg4 mi
8:20 AM55 °FFog.No wind88%29.95 "Hg3 mi
7:50 AM52 °FFog.No wind94%29.95 "Hg3 mi
7:20 AM48 °FFog.No wind94%29.95 "Hg2 mi
6:50 AM48 °FFog.No wind94%29.95 "Hg2 mi
6:20 AM48 °FFog.No wind94%29.95 "Hg2 mi
5:50 AM48 °FPassing clouds.No wind94%29.95 "Hg5 mi
4:50 AM50 °FPassing clouds.No wind88%29.98 "HgN/A
3:50 AM50 °FPassing clouds.No wind94%29.98 "HgN/A
2:50 AM50 °FPassing clouds.No wind88%29.98 "HgN/A
1:50 AM52 °FPassing clouds.No wind88%30.01 "HgN/A
12:50 AM52 °FPassing clouds.No wind88%30.01 "HgN/A
11:50 PM
Thu, May 5
52 °FPassing clouds.No wind94%29.98 "HgN/A
Weather by CustomWeather, © 2016

See weather overviewHow to use our weather pages